Torna al catalogo

STARLINK-33976

AttivoComunicazioniVLEO
NORAD 63858·PAYLOAD·🇺🇸 United States

Lanciato May 7, 2025 da Cape Canaveral Space Force Station

Loading…

Prossimi Passaggi (prossime 24 ore)

TLE

AggiornatoSource: CelesTrak SupGP

Epoca: Sep 15, 2026, 02:23 UTC

1 63858C 25093Y   26258.09979167  .00009570  00000+0  34660-3 0  2580
2 63858  43.0033  88.1717 0001688 273.0548 318.7333 15.27574221    14

Traccia STARLINK-33976 in tempo reale con AllMySat

Download on the App Store